| time (UTC) | temp F | wind direction | speed MPH | gust MPH | rain 1hr in | rain 24hr in | rain mn in | humidity % | barometer mb |
| 20260831181355 | 52 | 330 | 0.0 | 2.0 | 0.00 | 0.00 | 0.00 | 96 | 1026.0 |
| 20260831174131 | 53 | 323 | 0.0 | 2.0 | 0.00 | 0.00 | 0.00 | 96 | 1026.0 |
| 20260831173112 | 53 | 319 | 1.0 | 4.0 | 0.00 | 0.00 | 0.00 | 96 | 1026.0 |
| 20260831172039 | 53 | 311 | 1.0 | 4.0 | 0.00 | 0.00 | 0.00 | 96 | 1026.1 |
| 20260831171055 | 54 | 313 | 1.0 | 4.0 | 0.00 | 0.00 | 0.00 | 96 | 1026.1 |
| 20260831170026 | 54 | 316 | 0.0 | 4.0 | 0.00 | 0.00 | 0.00 | 96 | 1026.1 |
| 20260831165024 | 54 | 307 | 1.0 | 4.0 | 0.00 | 0.00 | 0.00 | 96 | 1026.2 |
| 20260831164031 | 54 | 315 | 1.0 | 3.0 | 0.00 | 0.00 | 0.00 | 96 | 1026.3 |
| 20260831163016 | 54 | 319 | 1.0 | 3.0 | 0.00 | 0.00 | 0.00 | 96 | 1026.6 |
| 20260831162014 | 55 | 317 | 1.0 | 3.0 | 0.00 | 0.00 | 0.00 | 96 | 1026.7 |
| 20260831160946 | 55 | 319 | 1.0 | 3.0 | 0.00 | 0.00 | 0.00 | 95 | 1026.8 |
| 20260831155943 | 55 | 319 | 1.0 | 2.0 | 0.00 | 0.00 | 0.00 | 96 | 1027.0 |
| 20260831154954 | 55 | 321 | 0.0 | 2.0 | 0.00 | 0.00 | 0.00 | 96 | 1027.1 |
| 20260831153922 | 55 | 321 | 0.0 | 0.0 | 0.00 | 0.00 | 0.00 | 95 | 1027.2 |
| 20260831150703 | 56 | 321 | 0.0 | 0.0 | 0.00 | 0.00 | 0.00 | 94 | 1027.5 |
| 20260831144457 | 57 | 321 | 0.0 | 0.0 | 0.00 | 0.00 | 0.00 | 94 | 1027.7 |
| 20260831143439 | 57 | 322 | 0.0 | 2.0 | 0.00 | 0.00 | 0.00 | 94 | 1027.7 |
| 20260831140314 | 58 | 304 | 1.0 | 5.0 | 0.00 | 0.00 | 0.00 | 94 | 1027.8 |
| 20260831135306 | 58 | 319 | 1.0 | 3.0 | 0.00 | 0.00 | 0.00 | 94 | 1027.9 |
| 20260831133157 | 58 | 320 | 0.0 | 4.0 | 0.00 | 0.00 | 0.00 | 93 | 1028.0 |
| 20260831132145 | 58 | 312 | 0.0 | 3.0 | 0.00 | 0.00 | 0.00 | 93 | 1028.1 |
| 20260831131201 | 59 | 319 | 0.0 | 3.0 | 0.00 | 0.00 | 0.00 | 93 | 1028.2 |
| 20260831130142 | 59 | 311 | 0.0 | 2.0 | 0.00 | 0.00 | 0.00 | 93 | 1028.3 |
| 20260831125155 | 59 | 311 | 0.0 | 3.0 | 0.00 | 0.00 | 0.00 | 92 | 1028.4 |
| 20260831124159 | 59 | 309 | 0.0 | 3.0 | 0.00 | 0.00 | 0.00 | 92 | 1028.4 |
| 20260831123141 | 60 | 313 | 0.0 | 3.0 | 0.00 | 0.00 | 0.00 | 92 | 1028.5 |
| 20260831122145 | 60 | 293 | 0.0 | 1.0 | 0.00 | 0.00 | 0.00 | 92 | 1028.6 |
| 20260831121203 | 60 | 249 | 0.0 | 0.0 | 0.00 | 0.00 | 0.00 | 92 | 1028.6 |
| 20260831120130 | 61 | 342 | 0.0 | 3.0 | 0.00 | 0.00 | 0.00 | 92 | 1028.8 |
| 20260831115117 | 61 | 310 | 0.0 | 3.0 | 0.00 | 0.00 | 0.00 | 91 | 1028.8 |
| 20260831114101 | 61 | 303 | 0.0 | 3.0 | 0.00 | 0.00 | 0.00 | 91 | 1028.8 |
| 20260831113048 | 61 | 3 | 0.0 | 1.0 | 0.00 | 0.00 | 0.00 | 91 | 1028.9 |
| 20260831112026 | 61 | 4 | 0.0 | 2.0 | 0.00 | 0.00 | 0.00 | 91 | 1028.9 |
| 20260831111004 | 61 | 337 | 0.0 | 1.0 | 0.00 | 0.00 | 0.00 | 90 | 1028.9 |
| 20260831105953 | 61 | 334 | 0.0 | 0.0 | 0.00 | 0.00 | 0.00 | 90 | 1028.9 |
| 20260831103824 | 62 | 9 | 0.0 | 1.0 | 0.00 | 0.00 | 0.00 | 89 | 1028.8 |
| 20260831102839 | 62 | 9 | 0.0 | 3.0 | 0.00 | 0.00 | 0.00 | 88 | 1028.8 |
| 20260831101817 | 62 | 31 | 0.0 | 3.0 | 0.00 | 0.00 | 0.00 | 88 | 1028.8 |
| 20260831100830 | 62 | 27 | 0.0 | 0.0 | 0.00 | 0.00 | 0.00 | 88 | 1028.8 |
| 20260831095806 | 62 | 15 | 0.0 | 1.0 | 0.00 | 0.00 | 0.00 | 87 | 1028.9 |
| 20260831094814 | 62 | 3 | 0.0 | 1.0 | 0.00 | 0.00 | 0.00 | 86 | 1028.8 |
| 20260831092701 | 63 | 24 | 0.0 | 5.0 | 0.00 | 0.00 | 0.00 | 85 | 1028.8 |
| 20260831091716 | 63 | 25 | 0.0 | 6.0 | 0.00 | 0.00 | 0.00 | 85 | 1028.9 |
| 20260831090705 | 64 | 15 | 0.0 | 7.0 | 0.00 | 0.00 | 0.00 | 85 | 1028.9 |
| 20260831085705 | 64 | 53 | 2.0 | 7.0 | 0.00 | 0.00 | 0.00 | 85 | 1028.9 |
| 20260831084656 | 64 | 31 | 2.0 | 5.0 | 0.00 | 0.00 | 0.00 | 84 | 1028.8 |
| 20260831083713 | 64 | 16 | 1.0 | 4.0 | 0.00 | 0.00 | 0.00 | 84 | 1028.7 |
| 20260831081641 | 64 | 31 | 1.0 | 6.0 | 0.00 | 0.00 | 0.00 | 83 | 1028.6 |
| 20260831080655 | 64 | 20 | 0.0 | 3.0 | 0.00 | 0.00 | 0.00 | 83 | 1028.6 |
| 20260831075713 | 64 | 49 | 0.0 | 4.0 | 0.00 | 0.00 | 0.00 | 83 | 1028.7 |
| 20260831073514 | 65 | 55 | 1.0 | 4.0 | 0.00 | 0.00 | 0.00 | 82 | 1028.6 |
| 20260831072442 | 65 | 56 | 0.0 | 5.0 | 0.00 | 0.00 | 0.00 | 82 | 1028.5 |
| 20260831071436 | 65 | 60 | 1.0 | 5.0 | 0.00 | 0.00 | 0.00 | 82 | 1028.4 |
| 20260831070445 | 65 | 56 | 1.0 | 5.0 | 0.00 | 0.00 | 0.00 | 82 | 1028.4 |
| 20260831065425 | 66 | 65 | 1.0 | 5.0 | 0.00 | 0.00 | 0.00 | 81 | 1028.4 |
| 20260831064412 | 66 | 51 | 1.0 | 5.0 | 0.00 | 0.00 | 0.00 | 80 | 1028.3 |
| 20260831062429 | 67 | 75 | 1.0 | 6.0 | 0.00 | 0.00 | 0.00 | 79 | 1028.2 |
| 20260831061433 | 67 | 49 | 2.0 | 6.0 | 0.00 | 0.00 | 0.00 | 78 | 1028.1 |
| 20260831060457 | 67 | 78 | 1.0 | 6.0 | 0.00 | 0.00 | 0.00 | 78 | 1028.1 |
| 20260831055513 | 67 | 90 | 1.0 | 6.0 | 0.00 | 0.00 | 0.00 | 79 | 1028.1 |
| 20260831054513 | 68 | 49 | 1.0 | 5.0 | 0.00 | 0.00 | 0.00 | 78 | 1028.1 |
| 20260831052352 | 68 | 78 | 2.0 | 6.0 | 0.00 | 0.00 | 0.00 | 79 | 1028.2 |
| 20260831051342 | 68 | 71 | 2.0 | 7.0 | 0.00 | 0.00 | 0.00 | 78 | 1028.1 |
| 20260831050405 | 68 | 109 | 2.0 | 7.0 | 0.00 | 0.00 | 0.00 | 78 | 1028.1 |
| 20260831045339 | 68 | 84 | 2.0 | 7.0 | 0.00 | 0.00 | 0.00 | 78 | 1028.1 |
| 20260831043216 | 69 | 51 | 2.0 | 6.0 | 0.00 | 0.00 | 0.00 | 76 | 1028.2 |
| 20260831042240 | 69 | 124 | 2.0 | 7.0 | 0.00 | 0.00 | 0.00 | 77 | 1028.4 |
| 20260831041206 | 69 | 89 | 1.0 | 7.0 | 0.00 | 0.00 | 0.00 | 76 | 1028.4 |
| 20260831040138 | 69 | 91 | 2.0 | 6.0 | 0.00 | 0.00 | 0.00 | 76 | 1028.5 |
| 20260831035134 | 69 | 72 | 3.0 | 6.0 | 0.00 | 0.00 | 0.00 | 74 | 1028.6 |
| 20260831034101 | 69 | 51 | 2.0 | 6.0 | 0.00 | 0.00 | 0.00 | 74 | 1028.7 |
| 20260831031926 | 69 | 141 | 2.0 | 5.0 | 0.00 | 0.00 | 0.00 | 75 | 1028.8 |
| 20260831030855 | 69 | 38 | 2.0 | 6.0 | 0.00 | 0.00 | 0.00 | 76 | 1029.0 |
| 20260831025905 | 69 | 68 | 2.0 | 6.0 | 0.00 | 0.00 | 0.00 | 75 | 1029.1 |
| 20260831023809 | 69 | 39 | 2.0 | 8.0 | 0.00 | 0.00 | 0.00 | 75 | 1029.6 |
| 20260831021840 | 69 | 48 | 2.0 | 6.0 | 0.00 | 0.00 | 0.00 | 76 | 1029.9 |
| 20260831020815 | 69 | 34 | 1.0 | 7.0 | 0.00 | 0.00 | 0.00 | 75 | 1030.0 |
| 20260831015831 | 69 | 101 | 2.0 | 7.0 | 0.00 | 0.00 | 0.00 | 75 | 1030.2 |
| 20260831014759 | 69 | 53 | 2.0 | 6.0 | 0.00 | 0.00 | 0.00 | 74 | 1030.3 |
| 20260831012616 | 69 | 91 | 1.0 | 5.0 | 0.00 | 0.00 | 0.00 | 75 | 1030.6 |
| 20260831011633 | 70 | 93 | 2.0 | 5.0 | 0.00 | 0.00 | 0.00 | 74 | 1030.7 |
| 20260831010622 | 71 | 96 | 0.0 | 4.0 | 0.00 | 0.00 | 0.00 | 72 | 1030.8 |
| 20260831005617 | 71 | 298 | 0.0 | 5.0 | 0.00 | 0.00 | 0.00 | 71 | 1030.8 |
| 20260831004548 | 69 | 33 | 1.0 | 5.0 | 0.00 | 0.00 | 0.00 | 73 | 1031.0 |
| 20260831003546 | 69 | 41 | 1.0 | 6.0 | 0.00 | 0.00 | 0.00 | 74 | 1031.0 |
| 20260831002558 | 69 | 308 | 0.0 | 6.0 | 0.00 | 0.00 | 0.00 | 75 | 1031.0 |
| 20260831001546 | 69 | 14 | 1.0 | 5.0 | 0.00 | 0.00 | 0.00 | 77 | 1030.9 |
| 20260831000552 | 68 | 315 | 1.0 | 6.0 | 0.00 | 0.00 | 0.00 | 78 | 1031.0 |
| 20260830235527 | 67 | 30 | 1.0 | 6.0 | 0.00 | 0.00 | 0.00 | 79 | 1031.0 |
| 20260830233408 | 67 | 309 | 0.0 | 5.0 | 0.00 | 0.00 | 0.00 | 79 | 1030.9 |
| 20260830231311 | 64 | 339 | 1.0 | 5.0 | 0.00 | 0.00 | 0.00 | 83 | 1031.0 |
| 20260830230317 | 63 | 324 | 1.0 | 5.0 | 0.00 | 0.00 | 0.00 | 86 | 1030.9 |
| 20260830225332 | 62 | 324 | 1.0 | 5.0 | 0.00 | 0.00 | 0.00 | 88 | 1030.9 |
| 20260830222159 | 57 | 304 | 1.0 | 4.0 | 0.00 | 0.00 | 0.00 | 93 | 1030.8 |
| 20260830220031 | 55 | 315 | 1.0 | 5.0 | 0.00 | 0.00 | 0.00 | 95 | 1030.7 |
| 20260830215032 | 54 | 321 | 1.0 | 6.0 | 0.00 | 0.00 | 0.00 | 96 | 1030.7 |
| 20260830214012 | 53 | 311 | 2.0 | 6.0 | 0.00 | 0.00 | 0.00 | 96 | 1030.7 |
| 20260830212946 | 52 | 315 | 3.0 | 6.0 | 0.00 | 0.00 | 0.00 | 96 | 1030.6 |
| 20260830212009 | 52 | 326 | 2.0 | 6.0 | 0.00 | 0.00 | 0.00 | 96 | 1030.5 |
| 20260830211022 | 51 | 308 | 1.0 | 4.0 | 0.00 | 0.00 | 0.00 | 96 | 1030.4 |
| 20260830201449 | 49 | 321 | 1.0 | 4.0 | 0.00 | 0.00 | 0.00 | 95 | 1029.8 |
| 20260830195316 | 50 | 319 | 1.0 | 5.0 | 0.00 | 0.00 | 0.00 | 95 | 1029.5 |
| 20260830194241 | 50 | 323 | 2.0 | 4.0 | 0.00 | 0.00 | 0.00 | 95 | 1029.4 |
| 20260830193207 | 50 | 323 | 1.0 | 4.0 | 0.00 | 0.00 | 0.00 | 95 | 1029.3 |
| 20260830192146 | 50 | 332 | 2.0 | 4.0 | 0.00 | 0.00 | 0.00 | 95 | 1029.2 |
| 20260830191119 | 51 | 316 | 1.0 | 4.0 | 0.00 | 0.00 | 0.00 | 95 | 1029.1 |
| 20260830190057 | 51 | 319 | 1.0 | 3.0 | 0.00 | 0.00 | 0.00 | 94 | 1029.1 |
| 20260830185030 | 51 | 314 | 1.0 | 2.0 | 0.00 | 0.00 | 0.00 | 94 | 1029.2 |
| 20260830184010 | 51 | 312 | 1.0 | 3.0 | 0.00 | 0.00 | 0.00 | 94 | 1029.2 |
| 20260830182941 | 51 | 319 | 1.0 | 3.0 | 0.00 | 0.00 | 0.00 | 94 | 1029.2 |
| 20260830182002 | 51 | 319 | 1.0 | 2.0 | 0.00 | 0.00 | 0.00 | 94 | 1029.2 |